Pilot Mountain, NC

4:12 AM EST on February 12, 2016 (GMT -0500)
Mount Airy-Surry County

Weather History for KMWK - February, 2013

Change the Weather History Date:

Sunday, February 24, 2013

  Actual Average (KINT) Record (KINT)
Temperature  
Mean Temperature 48 °F -  
Max Temperature 61 °F 52 °F 77 °F (2012)
Min Temperature 34 °F 33 °F 13 °F (1968)
Degree Days  
Heating Degree Days 18    
Moisture  
Dew Point 26 °F    
Average Humidity 52    
Maximum Humidity 91    
Minimum Humidity 16    
Precipitation  
Precipitation 0.00 in - - ()
Sea Level Pressure  
Sea Level Pressure 29.92 in    
Wind  
Wind Speed 4 mph (NW)    
Max Wind Speed 13 mph    
Max Gust Speed 21 mph    
Visibility 8 miles    
Events Fog    
Averages and records for this station are not official NWS values.
T = Trace of Precipitation, MM = Missing Value Source: NWS Daily Summary

Daily Weather History Graph

Daily Weather History Graph

Search for Another Location

Airport or City:

Trip Planner

Search our weather history database for the weather conditions in past years. The results will help you decide how hot, cold, wet, or windy it might be!

Date:

Astronomy

Feb. 24, 2013 Rise Set
Actual Time 6:58 AM EST 6:12 PM EST
Civil Twilight 6:32 AM EST 6:38 PM EST
Nautical Twilight 6:02 AM EST 7:08 PM EST
Astronomical Twilight 5:33 AM EST 7:38 PM EST
Moon 5:21 PM EST (2/24) 5:54 AM EST (2/24)
Length of Visible Light 12h 05m
Length of Day
11h 13m
Waxing Gibbous, 99% of the Moon is Illuminated
Feb 24
Waxing Gibbous
Feb 25
Full
Mar 4
Last Quarter
Mar 11
New
Mar 19
First Quarter

Hourly Weather History & Observations

Time (EST) Temp. Windchill Dew Point Humidity Pressure Visibility Wind Dir Wind Speed Gust Speed Precip Events Conditions
12:55 AM 38.8 °F - 36.1 °F 90% 29.81 in 3.0 mi Calm Calm - N/A   Clear
1:35 AM 37.4 °F - 34.7 °F 90% 29.83 in 3.0 mi Calm Calm - N/A   Mist
1:55 AM 37.6 °F - 35.1 °F 91% 29.82 in 1.5 mi Calm Calm - N/A   Mist
2:15 AM 37.0 °F - 34.3 °F 90% 29.81 in 2.5 mi Calm Calm - N/A   Clear
2:35 AM 36.9 °F - 34.2 °F 90% 29.81 in 1.5 mi Calm Calm - N/A   Mist
2:55 AM 36.5 °F 33.9 °F 34.0 °F 91% 29.80 in 0.2 mi East 3.5 mph - N/A Fog Fog
3:15 AM 36.9 °F - 34.3 °F 91% 29.82 in 0.2 mi Calm Calm - N/A Fog Fog
3:35 AM 36.9 °F - 34.2 °F 90% 29.80 in 0.2 mi Calm Calm - N/A Fog Fog
3:55 AM 36.9 °F 34.3 °F 34.3 °F 91% 29.80 in 0.2 mi North 3.5 mph - N/A Fog Fog
4:15 AM 37.2 °F - 34.7 °F 91% 29.81 in 0.2 mi Calm Calm - N/A Fog Fog
4:55 AM 36.5 °F - 34.0 °F 91% 29.83 in 0.2 mi Calm Calm - N/A Fog Fog
5:15 AM 35.1 °F - 32.5 °F 91% 29.83 in 1.0 mi Calm Calm - N/A   Mostly Cloudy
5:35 AM 34.5 °F 31.6 °F 32.0 °F 90% 29.83 in 3.0 mi NNW 3.5 mph - N/A   Clear
5:55 AM 35.8 °F - 33.3 °F 91% 29.85 in 7.0 mi Calm Calm - N/A   Clear
6:15 AM 36.9 °F - 34.5 °F 91% 29.85 in 10.0 mi Calm Calm - N/A   Clear
6:35 AM 36.5 °F 32.7 °F 34.2 °F 91% 29.86 in 10.0 mi WNW 4.6 mph - N/A   Clear
6:55 AM 38.3 °F 35.9 °F 36.0 °F 91% 29.88 in 10.0 mi West 3.5 mph - N/A   Clear
7:15 AM 38.8 °F 34.6 °F 36.5 °F 91% 29.88 in 10.0 mi NW 5.8 mph - N/A   Clear
7:35 AM 39.4 °F 34.5 °F 36.9 °F 91% 29.89 in 10.0 mi NW 6.9 mph - N/A   Clear
8:15 AM 44.1 °F 39.5 °F 37.4 °F 77% 29.91 in 10.0 mi NW 8.1 mph - N/A   Clear
8:35 AM 46.6 °F - 36.3 °F 67% 29.91 in 10.0 mi NW 9.2 mph - N/A   Clear
8:55 AM 47.7 °F - 36.3 °F 65% 29.92 in 10.0 mi NW 9.2 mph - N/A   Clear
9:15 AM 49.1 °F - 36.0 °F 61% 29.92 in 10.0 mi NW 8.1 mph - N/A   Clear
9:35 AM 50.5 °F - 36.3 °F 58% 29.93 in 10.0 mi WNW 9.2 mph - N/A   Clear
9:55 AM 51.4 °F - 35.2 °F 54% 29.93 in 10.0 mi WNW 9.2 mph - N/A   Clear
10:55 AM 52.3 °F - 28.2 °F 39% 29.94 in 10.0 mi NW 12.7 mph 17.3 mph N/A   Clear
11:15 AM 54.0 °F - 29.3 °F 39% 29.95 in 10.0 mi NW 6.9 mph - N/A   Clear
11:35 AM 55.6 °F - 28.2 °F 35% 29.94 in 10.0 mi North 9.2 mph - N/A   Clear
12:15 PM 57.4 °F - 29.8 °F 35% 29.93 in 10.0 mi North 6.9 mph - N/A   Clear
12:35 PM 59.5 °F - 41.0 °F 50% 29.93 in 10.0 mi West 5.8 mph - N/A   Clear
12:55 PM 59.0 °F - 34.7 °F 40% 29.92 in 10.0 mi NW 8.1 mph - N/A   Clear
1:15 PM 59.9 °F - 26.8 °F 28% 29.91 in 10.0 mi West 4.6 mph - N/A   Clear
1:55 PM 61.0 °F - 23.0 °F 23% 29.90 in 10.0 mi NW 10.4 mph - N/A   Clear
2:15 PM 61.5 °F - 19.9 °F 20% 29.90 in 10.0 mi West 8.1 mph 17.3 mph N/A   Clear
2:35 PM 61.3 °F - 16.9 °F 18% 29.90 in 10.0 mi West 10.4 mph 16.1 mph N/A   Clear
2:55 PM 61.0 °F - 17.1 °F 18% 29.90 in 10.0 mi NW 12.7 mph 19.6 mph N/A   Clear
3:15 PM 61.7 °F - 16.2 °F 17% 29.90 in 10.0 mi West 9.2 mph 17.3 mph N/A   Clear
3:35 PM 60.8 °F - 13.3 °F 16% 29.91 in 10.0 mi WNW 11.5 mph 20.7 mph N/A   Clear
4:15 PM 60.1 °F - 14.7 °F 17% 29.91 in 10.0 mi WNW 11.5 mph 18.4 mph N/A   Clear
4:35 PM 59.2 °F - 14.4 °F 17% 29.92 in 10.0 mi WNW 6.9 mph - N/A   Clear
4:55 PM 58.5 °F - 13.8 °F 17% 29.92 in 10.0 mi WNW 10.4 mph 19.6 mph N/A   Clear
5:15 PM 57.7 °F - 14.5 °F 18% 29.93 in 10.0 mi WNW 6.9 mph 17.3 mph N/A   Clear
5:55 PM 55.0 °F - 15.1 °F 21% 29.95 in 10.0 mi NNW 4.6 mph - N/A   Clear
6:15 PM 52.2 °F - 15.4 °F 23% 29.96 in 10.0 mi NW 9.2 mph - N/A   Clear
6:35 PM 50.5 °F - 15.8 °F 25% 29.97 in 10.0 mi NW 5.8 mph - N/A   Clear
6:55 PM 49.1 °F - 15.3 °F 26% 29.98 in 10.0 mi NW 3.5 mph - N/A   Clear
7:15 PM 48.2 °F - 16.3 °F 28% 29.99 in 10.0 mi NW 6.9 mph - N/A   Clear
7:35 PM 47.7 °F - 16.5 °F 29% 30.00 in 10.0 mi NW 5.8 mph - N/A   Clear
7:55 PM 46.8 °F - 16.5 °F 30% 30.01 in 10.0 mi Calm Calm - N/A   Clear
8:15 PM 45.5 °F 44.2 °F 16.5 °F 31% 30.01 in 10.0 mi NW 3.5 mph - N/A   Clear
8:35 PM 45.3 °F 43.0 °F 17.6 °F 33% 30.02 in 10.0 mi WNW 4.6 mph - N/A   Clear
8:55 PM 44.8 °F 42.4 °F 18.1 °F 34% 30.02 in 10.0 mi WNW 4.6 mph - N/A   Clear
9:15 PM 43.2 °F - 14.4 °F 31% 30.03 in 10.0 mi Calm Calm - N/A   Clear
9:35 PM 38.7 °F - 9.0 °F 29% 30.02 in 10.0 mi Calm Calm - N/A   Clear
9:55 PM 40.3 °F 35.5 °F 18.3 °F 41% 30.03 in 10.0 mi NW 6.9 mph - N/A   Clear
10:15 PM 42.8 °F 41.1 °F 18.9 °F 38% 30.03 in 10.0 mi NW 3.5 mph - N/A   Clear
10:35 PM 39.9 °F - 13.6 °F 34% 30.03 in 10.0 mi Calm Calm - N/A   Clear
11:15 PM 39.2 °F - 13.6 °F 35% 30.03 in 10.0 mi Calm Calm - N/A   Clear
11:35 PM 36.1 °F - 10.2 °F 34% 30.03 in 10.0 mi Calm Calm - N/A   Clear
11:55 PM 36.7 °F - 18.1 °F 47% 30.03 in 10.0 mi Calm Calm - N/A   Clear